Weather History for KTDZ - March, 2013

Change the Weather History Date:

Sunday, March 17, 2013

  Actual Average (KTOL) Record (KTOL)
Temperature  
Mean Temperature 28 °F 38 °F  
Max Temperature 30 °F 47 °F 77 °F (2012)
Min Temperature 26 °F 29 °F -2 °F (1900)
Degree Days  
Heating Degree Days 37 27  
Month to date heating degree days 511  
Since 1 July heating degree days 5087  
Cooling Degree Days 0 0  
Month to date cooling degree days 0  
Year to date cooling degree days 0  
Moisture  
Dew Point 20 °F    
Average Humidity 69    
Maximum Humidity 80    
Minimum Humidity 56    
Precipitation  
Precipitation 0.00 in 0.08 in - ()
Month to date precipitation 1.28  
Year to date precipitation 5.40  
Snow  
Snow 0.00 in 0.20 in - ()
Month to date snowfall 3.8  
Since 1 July snowfall 34.3  
Snow Depth -    
Sea Level Pressure  
Sea Level Pressure 30.19 in    
Wind  
Wind Speed 9 mph (NNE)    
Max Wind Speed 18 mph    
Max Gust Speed 24 mph    
Visibility 10 miles    
Events      
T = Trace of Precipitation, MM = Missing Value Source: NWS Daily Summary

Daily Weather History Graph

Daily Weather History Graph

Search for Another Location

Airport or City:

Trip Planner

Search our weather history database for the weather conditions in past years. The results will help you decide how hot, cold, wet, or windy it might be!

Date:

Astronomy

Mar. 17, 2013 Rise Set
Actual Time 7:41 AM EDT 7:43 PM EDT
Civil Twilight 7:14 AM EDT 8:10 PM EDT
Nautical Twilight 6:42 AM EDT 8:43 PM EDT
Astronomical Twilight 6:09 AM EDT 9:15 PM EDT
Moon 10:49 AM EDT (3/17) 12:54 AM EDT (3/17)
Length of Visible Light 12h 56m
Length of Day
12h 01m
Waxing Crescent, 31% of the Moon is Illuminated
Mar 17
Waxing Crescent
Mar 19
First Quarter
Mar 27
Full
Apr 3
Last Quarter
Apr 10
New

Hourly Weather History & Observations

Time (EDT) Temp. Windchill Dew Point Humidity Pressure Visibility Wind Dir Wind Speed Gust Speed Precip Events Conditions
12:24 AM 30.2 °F 22.6 °F 24.8 °F 80% 30.06 in 10.0 mi WNW 8.1 mph - N/A   Overcast
12:53 AM 30.9 °F 21.7 °F 24.1 °F 76% 30.09 in 10.0 mi NW 11.5 mph - N/A   Overcast
1:53 AM 30.9 °F 22.2 °F 24.1 °F 76% 30.08 in 10.0 mi NNW 10.4 mph - N/A   Overcast
2:20 AM 30.2 °F 24.3 °F 23.0 °F 75% 30.07 in 10.0 mi WNW 5.8 mph - N/A   Overcast
2:53 AM 30.0 °F - 23.0 °F 75% 30.10 in 10.0 mi Calm Calm - N/A   Overcast
3:53 AM 30.0 °F 26.5 °F 24.1 °F 79% 30.11 in 10.0 mi WSW 3.5 mph - N/A   Overcast
4:18 AM 30.2 °F 25.4 °F 24.8 °F 80% 30.09 in 10.0 mi WNW 4.6 mph - N/A   Overcast
4:53 AM 28.9 °F 16.9 °F 19.9 °F 69% 30.13 in 10.0 mi NNW 17.3 mph 24.2 mph N/A   Overcast
5:03 AM 28.4 °F 15.8 °F 19.4 °F 69% 30.10 in 10.0 mi NNW 18.4 mph - N/A   Overcast
5:53 AM 27.0 °F 18.0 °F 18.0 °F 69% 30.14 in 10.0 mi NNW 9.2 mph - N/A   Clear
6:53 AM 27.0 °F 18.0 °F 17.1 °F 66% 30.17 in 10.0 mi North 9.2 mph - N/A   Clear
7:53 AM 26.1 °F 19.4 °F 17.1 °F 69% 30.19 in 10.0 mi North 5.8 mph - N/A   Clear
8:53 AM 27.0 °F 16.7 °F 18.0 °F 69% 30.22 in 10.0 mi North 11.5 mph - N/A   Clear
9:53 AM 28.0 °F 18.1 °F 18.0 °F 66% 30.25 in 10.0 mi North 11.5 mph - N/A   Clear
10:53 AM 28.9 °F 20.4 °F 19.0 °F 67% 30.26 in 10.0 mi NNE 9.2 mph 16.1 mph N/A   Partly Cloudy
11:20 AM 28.4 °F 19.1 °F 19.4 °F 69% 30.24 in 10.0 mi NE 10.4 mph 16.1 mph N/A   Mostly Cloudy
11:53 AM 28.9 °F 19.2 °F 19.0 °F 67% 30.27 in 10.0 mi ENE 11.5 mph 18.4 mph N/A   Overcast
12:53 PM 28.9 °F 18.2 °F 15.1 °F 56% 30.28 in 10.0 mi ENE 13.8 mph - N/A   Mostly Cloudy
1:53 PM 30.0 °F 20.0 °F 18.0 °F 61% 30.26 in 10.0 mi NE 12.7 mph - N/A   Overcast
2:31 PM 30.2 °F 20.8 °F 19.4 °F 64% 30.24 in 10.0 mi ENE 11.5 mph - N/A   Overcast
2:53 PM 30.0 °F 21.7 °F 19.0 °F 64% 30.26 in 10.0 mi ENE 9.2 mph 17.3 mph N/A   Overcast
3:43 PM 30.2 °F 20.8 °F 19.4 °F 64% 30.23 in 10.0 mi ENE 11.5 mph - N/A   Overcast
3:53 PM 30.0 °F 21.1 °F 19.0 °F 64% 30.25 in 10.0 mi ENE 10.4 mph 17.3 mph N/A   Overcast
4:53 PM 30.0 °F 21.1 °F 18.0 °F 61% 30.25 in 10.0 mi ENE 10.4 mph - N/A   Overcast
5:46 PM 30.2 °F 20.2 °F 19.4 °F 64% 30.21 in 10.0 mi ENE 12.7 mph 18.4 mph N/A   Overcast
5:53 PM 30.0 °F 20.5 °F 18.0 °F 61% 30.24 in 10.0 mi ENE 11.5 mph - N/A   Overcast
6:53 PM 30.0 °F 21.7 °F 19.9 °F 66% 30.23 in 10.0 mi East 9.2 mph 17.3 mph N/A   Overcast
7:53 PM 28.9 °F 20.4 °F 19.9 °F 69% 30.23 in 10.0 mi ENE 9.2 mph - N/A   Mostly Cloudy
8:06 PM 28.4 °F 20.4 °F 19.4 °F 69% 30.21 in 10.0 mi ENE 8.1 mph - N/A   Scattered Clouds
8:53 PM 28.0 °F 19.3 °F 19.0 °F 69% 30.25 in 10.0 mi ENE 9.2 mph - N/A   Clear
9:53 PM 28.0 °F 19.3 °F 19.0 °F 69% 30.24 in 10.0 mi ENE 9.2 mph - N/A   Clear
10:53 PM 28.0 °F 17.5 °F 19.9 °F 72% 30.21 in 10.0 mi ENE 12.7 mph 19.6 mph N/A   Clear
11:53 PM 28.0 °F 17.5 °F 19.9 °F 72% 30.19 in 10.0 mi ENE 12.7 mph 19.6 mph N/A   Clear